TimeMDT,TemperatureF,Dew PointF,Humidity,Sea Level PressureIn,VisibilityMPH,Wind Direction,Wind SpeedMPH,Gust SpeedMPH,PrecipitationIn,Events,Conditions,WindDirDegrees,DateUTC
12:52 AM,64.9,36.0,34,29.89,10.0,South,4.6,-,N/A,,Clear,190,2013-05-13 06:52:00
1:52 AM,64.0,36.0,35,29.88,10.0,South,9.2,-,N/A,,Clear,180,2013-05-13 07:52:00
2:52 AM,60.1,36.0,41,29.86,10.0,South,3.5,-,N/A,,Clear,170,2013-05-13 08:52:00
3:52 AM,57.9,37.0,46,29.85,10.0,Calm,Calm,-,N/A,,Clear,0,2013-05-13 09:52:00
4:52 AM,51.1,37.9,61,29.86,10.0,Calm,Calm,-,N/A,,Clear,0,2013-05-13 10:52:00
5:52 AM,61.0,39.9,46,29.85,10.0,WNW,8.1,-,N/A,,Clear,300,2013-05-13 11:52:00
6:52 AM,68.0,41.0,37,29.87,10.0,WNW,10.4,-,N/A,,Clear,290,2013-05-13 12:52:00
7:52 AM,73.0,44.1,35,29.89,10.0,WNW,9.2,-,N/A,,Clear,290,2013-05-13 13:52:00
8:52 AM,79.0,45.0,30,29.89,10.0,West,9.2,-,N/A,,Clear,280,2013-05-13 14:52:00
9:52 AM,86.0,37.9,18,29.88,10.0,NNW,15.0,-,N/A,,Clear,340,2013-05-13 15:52:00
10:52 AM,87.8,37.4,17,29.88,10.0,North,-9999.0,-,N/A,,Clear,0,2013-05-13 16:52:00
12:52 PM,89.1,39.0,17,29.86,10.0,North,17.3,28.8,N/A,,Clear,10,2013-05-13 18:52:00
2:52 PM,87.1,37.0,17,29.86,10.0,Calm,Calm,-,0.00,,Mostly Cloudy,0,2013-05-13 20:52:00
3:52 PM,88.0,39.0,18,29.84,10.0,Variable,4.6,-,N/A,,Clear,0,2013-05-13 21:52:00
4:52 PM,88.0,41.0,19,29.82,10.0,East,9.2,-,N/A,,Clear,90,2013-05-13 22:52:00
5:52 PM,86.0,42.8,22,29.87,10.0,SSE,4.6,-,N/A,,Clear,150,2013-05-13 23:52:00
6:52 PM,82.0,50.0,33,29.78,10.0,SE,6.9,-,N/A,,Clear,130,2013-05-14 00:52:00
7:52 PM,73.0,50.0,44,29.77,10.0,ESE,5.8,-,N/A,,Clear,110,2013-05-14 01:52:00
8:52 PM,69.1,45.0,42,29.76,10.0,SE,3.5,-,N/A,,Clear,130,2013-05-14 02:52:00
9:52 PM,62.1,45.0,53,29.75,10.0,Calm,Calm,-,N/A,,Clear,0,2013-05-14 03:52:00
10:52 PM,66.9,42.1,40,29.71,10.0,South,5.8,-,N/A,,Clear,190,2013-05-14 04:52:00
11:52 PM,64.9,42.1,43,29.77,10.0,SE,6.9,-,N/A,,Clear,140,2013-05-14 05:52:00